Flag for Tunisia Weather past 2 weeks in Tunis, Tunisia

Now
61 °F

Passing clouds.


Feels Like: 61 °F
Forecast: 46 / 65 °F
Wind: 5 mph from North

Location: Tunis-Carthage

Current Time: Dec 22, 2014 at 5:02:46 PM

Latest Report: Dec 22, 2014 at 4:30 PM


Visibility: N/A

Pressure: 30.48 "Hg

Humidity: 68%

Dew point: 50 °F

Location of TunisLocation

Historic Weather in Tunis — Graph

°F

Tunis temperature yesterday

Maximum temperature yesterday: 64 °F (at 12:00 PM)
Minimum temperature yesterday: 55 °F (at 8:00 AM)
Average temperature yesterday: 59 °F

Past Weeks' High & Low Weather Summary

 TemperatureHumidityPressure
High68 °F (Dec 15, 12:00 PM)94% (Dec 8, 9:00 AM)30.54 "Hg (Dec 8, 9:00 AM)
Low45 °F (Dec 13, 7:30 AM)43% (Dec 16, 1:30 PM)29.77 "Hg (Dec 9, 12:30 PM)
Average57 °F73%30.11 "Hg
* Reported Dec 7 4:00 PM — Dec 22 4:00 PM, Tunis, Weather by CustomWeather, © 2014

Note: Actual official high and low records may vary slightly from our data, if they occured in-between our weather recording intervals... More about our weather records

Advertising

Tunis weather history for previous 24 hours

 ConditionsComfort  
Time TempWeatherWind HumidityBarometerVisibility
4:00 PM
Dec 22
61 °FPassing clouds.5 mph68%30.48 "HgN/A
3:30 PM63 °FScattered clouds.6 mph64%30.48 "HgN/A
3:00 PM63 °FScattered clouds.5 mph64%30.48 "HgN/A
2:30 PM63 °FScattered clouds.5 mph64%30.48 "HgN/A
2:00 PM63 °FScattered clouds.8 mph59%30.48 "HgN/A
1:30 PM64 °FPassing clouds.7 mph56%30.48 "HgN/A
1:00 PM63 °FPassing clouds.6 mph64%30.48 "HgN/A
12:30 PM63 °FPassing clouds.7 mph64%30.51 "HgN/A
12:00 PM63 °FPassing clouds.9 mph64%30.51 "HgN/A
11:30 AM61 °FPassing clouds.6 mph63%30.51 "HgN/A
11:00 AM61 °FPassing clouds.8 mph63%30.54 "HgN/A
10:30 AM59 °FPassing clouds.8 mph68%30.54 "HgN/A
10:00 AM59 °FPassing clouds.5 mph68%30.54 "HgN/A
9:30 AM57 °FPassing clouds.6 mph72%30.51 "HgN/A
9:00 AM54 °FPassing clouds.6 mph82%30.51 "HgN/A
8:30 AM54 °FPassing clouds.6 mph82%30.48 "HgN/A
8:00 AM52 °FPassing clouds.3 mph82%30.48 "HgN/A
7:30 AM52 °FScattered clouds.7 mph77%30.48 "HgN/A
7:00 AM52 °FPassing clouds.6 mph77%30.45 "HgN/A
6:30 AM54 °FPassing clouds.3 mph72%30.45 "HgN/A
6:00 AM54 °FPassing clouds.6 mph72%30.45 "HgN/A
5:30 AM55 °FPassing clouds.8 mph67%30.45 "HgN/A
4:30 AM55 °FPassing clouds.6 mph72%30.45 "HgN/A
4:00 AM55 °FPassing clouds.7 mph67%30.45 "HgN/A
3:30 AM55 °FPassing clouds.5 mph72%30.45 "HgN/A
3:00 AM55 °FPassing clouds.3 mph67%30.45 "HgN/A
2:30 AM55 °FPassing clouds.7 mph72%30.45 "HgN/A
2:00 AM54 °FPassing clouds.6 mph77%30.45 "HgN/A
1:30 AM54 °FPassing clouds.3 mph77%30.45 "HgN/A
1:00 AM55 °FPassing clouds.2 mph72%30.45 "HgN/A
12:30 AM55 °FPassing clouds.5 mph72%30.45 "HgN/A
12:00 AM57 °FPassing clouds.5 mph67%30.45 "HgN/A
11:30 PM
Dec 21
57 °FPassing clouds.7 mph67%30.45 "HgN/A
10:30 PM57 °FPassing clouds.7 mph72%30.45 "HgN/A
10:00 PM57 °FPassing clouds.7 mph72%30.45 "HgN/A
9:30 PM57 °FPassing clouds.7 mph72%30.45 "HgN/A
8:30 PM57 °FPassing clouds.7 mph72%30.45 "HgN/A
8:00 PM57 °FPassing clouds.6 mph77%30.42 "HgN/A
7:00 PM57 °FPassing clouds.5 mph72%30.42 "HgN/A
6:30 PM59 °FPassing clouds.8 mph68%30.42 "HgN/A
6:00 PM59 °FPassing clouds.12 mph68%30.39 "HgN/A
5:30 PM59 °FPassing clouds.13 mph68%30.39 "HgN/A
5:00 PM59 °FPartly sunny.14 mph68%30.39 "HgN/A
Weather by CustomWeather, © 2014

See weather overviewHow to use our weather pages